Regional Weather Roundup
Issued by NWS

Home | Current Version | Previous Version | Graphics & Text | Print | Product List | Glossary On
Versions: 1 2 3 4 5 6 7 8 9 10 11 12 13 14 15 16 17 18 19 20 21 22 23 24 25 26 27 28 29 30 31 32 33 34 35 36 37 38 39 40 41 42 43 44 45 46 47 48 49 50
000
ASUS43 KDTX 070601
RWRMI
MICHIGAN HOURLY REGIONAL WEATHER ROUNDUP
NATIONAL WEATHER SERVICE DETROIT/PONTIAC MI
100 AM EST WED DEC 07 2016

NOTE: "FAIR" INDICATES FEW OR NO CLOUDS BELOW 12,000 FEET WITH NO
SIGNIFICANT WEATHER AND/OR OBSTRUCTION TO VISIBILITY.

MIZ047>049-052>055-059>063-066>070-074>076-081>083-070700-
SOUTHEAST LOWER MICHIGAN

CITY           SKY/WX    TMP DP  RH WIND       PRES   REMARKS
ADRIAN         CLEAR     33  27  78 W10       29.89R WCI  25
6HR MIN TEMP:  33; 6HR MAX TEMP:  38;

ALMA           CLOUDY    33  24  69 W15G23    29.82R WCI  23
ANN ARBOR      PTCLDY    33  28  81 SW14      29.85R WCI  23
BAD AXE        CLEAR     33  31  92 W12       29.76R WCI  24
CARO           MOCLDY    34  30  87 SW14G21   29.77S WCI  24
DETROIT CITY   PTCLDY    36  30  79 W9        29.84R WCI  29
6HR MIN TEMP:  36; 6HR MAX TEMP:  40;

DETROIT        CLOUDY    35  29  78 W14G24    29.86R WCI  26
6HR MIN TEMP:  35; 6HR MAX TEMP:  40; 6HR PCP: TRACE;

FLINT          MOCLDY    34  25  69 W15G26    29.82R WCI  24
6HR MIN TEMP:  34; 6HR MAX TEMP:  39;

GROSSE ILE     MOCLDY    35  31  83 W7        29.85R WCI  29
6HR MIN TEMP:  35; 6HR MAX TEMP:  40;

HILLSDALE      PTCLDY    30  23  74 W15G25    29.87R WCI  19
HOWELL         PTCLDY    32  25  73 W21G26    29.84R WCI  20
6HR MIN TEMP:  32; 6HR MAX TEMP:  38;


CITY           SKY/WX    TMP DP  RH WIND       PRES   REMARKS
JACKSON        MOCLDY    32  23  69 W13G22    29.87R WCI  22
6HR MIN TEMP:  32; 6HR MAX TEMP:  39;

LAMBERTVILLE   MOCLDY    35  31  86 SW7       29.90R WCI  29
6HR MIN TEMP:  35; 6HR MAX TEMP:  39;

LANSING        CLOUDY    33  21  61 W17G31    29.85R WCI  22
6HR MIN TEMP:  33; 6HR MAX TEMP:  38;

LAPEER         NOT AVBL
MASON          MOCLDY    33  25  74 W14G21    29.85R WCI  23
MONROE         CLEAR     34  30  86 W8        29.87R WCI  27
6HR MIN TEMP:  34; 6HR MAX TEMP:  39;

MT. CLEMENS    PTCLDY    36  30  79 W12       29.81R WCI  28
6HR MIN TEMP:  36; 6HR MAX TEMP:  40; 6HR PCP: TRACE;

PONTIAC        MOCLDY    34  27  75 W13G25    29.81R WCI  25
6HR MIN TEMP:  34; 6HR MAX TEMP:  38; 6HR PCP: TRACE;

PORT HOPE        N/A     36  31  82 W10G17    29.72R WCI  28
6HR MIN TEMP:  36; 6HR MAX TEMP:  39; 6HR PCP:  0.05;

PORT HURON     PTCLDY    34  32  93 W6        29.81R WCI  29
TRI CITIES     PTCLDY    34  25  69 W21G28    29.79R WCI  22
6HR MIN TEMP:  34; 6HR MAX TEMP:  39;

MIDLAND        MOCLDY    35  24  64 W10       29.78R WCI  27
6HR MIN TEMP:  34; 6HR MAX TEMP:  39;

TROY           PTCLDY    36  30  80 SW5       29.85R WCI  32
SAGINAW HB     CLEAR     34  28  80 SW10      29.79R WCI  26
$$
MIZ043>046-050>051-056>058-064>065-071>073-077>080-070700-
SOUTHWEST LOWER MICHIGAN

CITY           SKY/WX    TMP DP  RH WIND       PRES   REMARKS
BATTLE CREEK   CLOUDY    32  24  72 W15       29.88R WCI  22
6HR MIN TEMP:  32; 6HR MAX TEMP:  39;

BENTON HARBOR  MOCLDY    32  23  69 W17G26    29.94R WCI  21
6HR MIN TEMP:  32; 6HR MAX TEMP:  39;

BIG RAPIDS     CLOUDY    31  21  66 W14G26    29.80R WCI  20
6HR MIN TEMP:  31; 6HR MAX TEMP:  37;

COLDWATER      CLOUDY    32  25  74 W18       29.91R WCI  20
6HR MIN TEMP:  32; 6HR MAX TEMP:  38;

FREMONT        CLOUDY    30  19  64 W14       29.84S WCI  19
HOLLAND        CLOUDY    32  24  72 W20G32    29.89R WCI  20
6HR MIN TEMP:  32; 6HR MAX TEMP:  39;

GRAND RAPIDS   CLOUDY    32  22  66 W20G30    29.87R WCI  20
6HR MIN TEMP:  32; 6HR MAX TEMP:  37;

IONIA          CLOUDY    32  24  72 W16G22    29.84R WCI  21
6HR MIN TEMP:  32; 6HR MAX TEMP:  36;

KALAMAZOO      CLOUDY    32  22  66 W18G24    29.90R WCI  20
6HR MIN TEMP:  32; 6HR MAX TEMP:  38;

LUDINGTON      CLOUDY    30  21  71 W10G22    29.83R WCI  21
6HR MIN TEMP:  29; 6HR MAX TEMP:  38;

MARSHALL       CLOUDY    32  25  74 W14       29.88R WCI  22
6HR MIN TEMP:  32; 6HR MAX TEMP:  38;

MOUNT PLEASANT CLOUDY    32  21  64 W15G26    29.80R WCI  22
6HR MIN TEMP:  32; 6HR MAX TEMP:  37;

MUSKEGON       CLOUDY    32  22  66 W17G28    29.87S WCI  21
6HR MIN TEMP:  32; 6HR MAX TEMP:  40;

SOUTH HAVEN    CLOUDY    32  24  73 W17G23    29.92S WCI  21
$$
MIZ016>042-070700-
NORTHERN LOWER MICHIGAN

CITY           SKY/WX    TMP DP  RH WIND       PRES   REMARKS
ALPENA         MOCLDY    35  26  69 SW12G18   29.68S WCI  27
6HR MIN TEMP:  33; 6HR MAX TEMP:  40; 6HR PCP: TRACE;

BEAVER ISLAND  CLOUDY    30  23  75 W29       29.68S WCI  16
6HR MIN TEMP:  30; 6HR MAX TEMP:  40;

BELLAIRE       CLOUDY    31  23  72 SW12G25   29.75R WCI  22
6HR MIN TEMP:  31; 6HR MAX TEMP:  38;

CADILLAC       CLOUDY    28  20  75 W17G25    29.74R WCI  15
CHARLEVOIX     CLOUDY    32  25  75 SW13G36   29.74R WCI  22
6HR MIN TEMP:  32; 6HR MAX TEMP:  38;

FRANKFORT      CLOUDY    31  22  71 W13G25    29.78S WCI  21
GAYLORD        CLOUDY    30  21  69 W16G29    29.69R WCI  19
6HR MIN TEMP:  30; 6HR MAX TEMP:  36;

GRAYLING       CLOUDY    32  23  70 W16G24    29.72R WCI  21
HARBOR SPRINGS CLOUDY    32  26  76 SW23G37   29.69R WCI  19
HOUGHTON LAKE  CLOUDY    31  20  63 SW21G26   29.74R WCI  18
6HR MIN TEMP:  31; 6HR MAX TEMP:  36;

MANISTEE       CLOUDY    30  22  72 W14       29.81R WCI  19
OSCODA         PTCLDY    34  28  80 MISG      29.71R
6HR MIN TEMP:  34; 6HR MAX TEMP:  41;

PELLSTON       CLOUDY    33  22  63 W18G31    29.67R WCI  22
6HR MIN TEMP:  33; 6HR MAX TEMP:  39; 6HR PCP:  0.01;

ROGERS CITY    MOCLDY    35  29  78 W7        29.67R WCI  29
TRAVERSE CITY  CLOUDY    31  21  66 W13G23    29.75S WCI  21
6HR MIN TEMP:  31; 6HR MAX TEMP:  39; 6HR PCP: TRACE;

$$
MIZ007>008-015-070700-
EASTERN UPPER MICHIGAN

CITY           SKY/WX    TMP DP  RH WIND       PRES   REMARKS
KINROSS        CLOUDY    32  31  96 W8        29.62R WCI  25
6HR MIN TEMP:  32; 6HR MAX TEMP:  38; 6HR PCP:  0.01;

MACKINAC ISLAN CLOUDY    33  27  77 W20G32    29.65R WCI  21
NEWBERRY       MOCLDY    28  23  80 SW15G23   29.62R WCI  16
6HR MIN TEMP:  28; 6HR MAX TEMP:  37;

S. S. MARIE    CLOUDY    34  29  82 SW12      29.61R WCI  25
6HR MIN TEMP:  34; 6HR MAX TEMP:  39; 6HR PCP:  0.02;

MUNISING         N/A     27  16  63 SW5G23    29.64R WCI  22
6HR MIN TEMP:  27; 6HR MAX TEMP:  35;

$$
MIZ004>006-011>014-085-070700-
CENTRAL UPPER MICHIGAN

CITY           SKY/WX    TMP DP  RH WIND       PRES   REMARKS
MANISTIQUE     CLOUDY    27  15  62 W12G22    29.68R WCI  16
6HR MIN TEMP:  27; 6HR MAX TEMP:  38;

ESCANABA       FLURRIES  26  17  68 SW18G26   29.70S WCI  13
6HR MIN TEMP:  26; 6HR MAX TEMP:  34; 6HR PCP: TRACE;

MENOMINEE      FLURRIES  27  17  66 W10G24    29.74F WCI  17
6HR MIN TEMP:  26; 6HR MAX TEMP:  34; 6HR PCP: TRACE;

SAWYER-GWINN   CLOUDY    24  16  71 W18G24    29.62S WCI  10
6HR MIN TEMP:  24; 6HR MAX TEMP:  32;

$$
MIZ001>003-009>011-084-070700-
WESTERN UPPER MICHIGAN

CITY           SKY/WX    TMP DP  RH WIND       PRES   REMARKS
IRON MOUNTAIN  CLOUDY    24  13  62 SW15G21   29.64S WCI  11
6HR MIN TEMP:  23; 6HR MAX TEMP:  29; 6HR PCP: TRACE;

HOUGHTON       CLOUDY    24  14  65 SW14      29.55F WCI  12
6HR MIN TEMP:  24; 6HR MAX TEMP:  28;

COPPER HARBOR    N/A     27  17  66 W9        29.57S WCI  18
6HR MIN TEMP:  27; 6HR MAX TEMP:  35;

IRONWOOD       FLURRIES  21  14  74 SW17G30   29.60R WCI   7
6HR MIN TEMP:  21; 6HR MAX TEMP:  22; 6HR PCP: TRACE;

$$

ABBREVIATIONS USED IN REMARKS
   TC - TEMPERATURE IN CELSIUS
  WCI - WIND CHILL INDEX
   HX - HEAT INDEX
  VSB - VISIBILITY





USA.gov is the U.S. government's official web portal to all federal, state and local government web resources and services.